Flag for U.S.A. Weather past 2 weeks in Long Beach, California, U.S.A.

Now
65 °F

Passing clouds.


Feels Like: 65 °F
Forecast: 63 / 80 °F
Wind: No wind

Location: Long Beach Airport

Current Time: Oct 1, 2014 at 5:21:52 AM

Latest Report: Oct 1, 2014 at 4:53 AM


Visibility: 9 mi

Pressure: 29.77 "Hg

Humidity: 91%

Dew point: 62 °F

Location of Long BeachLocation

Historic Weather in Long Beach — Graph

°F

Long Beach temperature yesterday

Maximum temperature yesterday: 87 °F (at 3:53 PM)
Minimum temperature yesterday: 63 °F (at 4:53 AM)
Average temperature yesterday: 72 °F

Past Weeks' High & Low Weather Summary

 TemperatureHumidityPressure
High96 °F (Sep 16, 1:53 PM)94% (Sep 26, 3:02 AM)30.00 "Hg (Sep 26, 3:02 AM)
Low63 °F (Sep 27, 5:53 AM)21% (Sep 24, 2:53 PM)29.69 "Hg (Sep 16, 2:53 PM)
Average73 °F68%29.86 "Hg
* Reported Sep 16 3:53 AM — Oct 1 3:53 AM, Long Beach, Weather by CustomWeather, © 2014

Note: Actual official high and low records may vary slightly from our data, if they occured in-between our weather recording intervals... More about our weather records

Advertising

Long Beach weather history for previous 24 hours

 ConditionsComfort  
Time TempWeatherWind HumidityBarometerVisibility
3:53 AM
Oct 1
65 °FClear.No wind94%29.75 "Hg9 mi
2:53 AM65 °FClear.No wind91%29.76 "Hg9 mi
1:53 AM65 °FClear.3 mph91%29.76 "Hg9 mi
12:53 AM66 °FClear.No wind90%29.77 "Hg10 mi
11:53 PM
Sep 30
68 °FClear.No wind82%29.77 "Hg10 mi
10:53 PM69 °FClear.No wind79%29.77 "Hg10 mi
9:53 PM70 °FClear.No wind71%29.77 "Hg10 mi
8:53 PM70 °FClear.3 mph76%29.77 "Hg10 mi
7:53 PM71 °FClear.6 mph78%29.76 "Hg10 mi
6:53 PM74 °FSunny.10 mph67%29.75 "Hg10 mi
5:53 PM77 °FSunny.10 mph54%29.75 "Hg10 mi
4:53 PM83 °FSunny.10 mph37%29.75 "Hg10 mi
3:53 PM87 °FSunny.10 mph29%29.75 "Hg10 mi
2:53 PM83 °FSunny.8 mph38%29.76 "Hg10 mi
1:53 PM81 °FSunny.6 mph44%29.79 "Hg10 mi
12:53 PM79 °FSunny.8 mph54%29.82 "Hg10 mi
11:53 AM78 °FSunny.6 mph56%29.84 "Hg10 mi
10:53 AM77 °FSunny.3 mph60%29.86 "Hg10 mi
9:53 AM74 °FSunny.No wind67%29.87 "Hg10 mi
8:53 AM71 °FSunny.No wind73%29.86 "Hg10 mi
7:53 AM66 °FPassing clouds.No wind73%29.86 "Hg10 mi
6:53 AM63 °FPassing clouds.No wind81%29.85 "Hg10 mi
5:53 AM63 °FClear.No wind84%29.84 "Hg10 mi
Weather by CustomWeather, © 2014

See weather overviewHow to use our weather pages